FW7560 Weather Reports


time (UTC)temp
C
wind
direction
speed
KPH
gust
KPH
rain 1hr
cm
rain 24hr
cm
rain mn
cm
humidity
%
barometer
mb
20260503021553 5 0.0 0.0 0.00 0.00 0.00 66 1015.6
20260503020056 5 0.0 0.0 0.00 0.00 0.00 65 1015.6
20260503014615 5 0.0 0.0 0.00 0.00 0.00 64 1015.4
20260503013049 5 0.0 0.0 0.00 0.00 0.00 62 1015.2
20260503011556 5 0.0 0.0 0.00 0.00 0.00 61 1014.9
20260503010052 6 0.0 0.0 0.00 0.00 0.00 61 1015.0
20260503004552 6 0.0 0.0 0.00 0.00 0.00 59 1014.6
20260503003050 6 0.0 0.0 0.00 0.00 0.00 58 1014.6
20260503001551 7 0.0 0.0 0.00 0.00 0.00 56 1014.7
20260503000053 7 0.0 0.0 0.00 0.00 0.00 54 1014.6
20260502234551 7 0.0 0.0 0.00 0.00 0.00 54 1014.5
20260502233050 8 0.0 0.0 0.00 0.00 0.00 53 1014.5
20260502231609 8 0.0 0.0 0.00 0.00 0.00 52 1014.3
20260502230054 8 0.0 0.0 0.00 0.00 0.00 54 1014.4
20260502224554 8 0.0 0.0 0.00 0.00 0.00 52 1014.2
20260502223054 9 0.0 0.0 0.00 0.00 0.00 51 1014.2
20260502221600 8 0.0 0.0 0.00 0.00 0.00 52 1014.1
20260502214555 9 0.0 0.0 0.00 0.00 0.00 51 1014.0
20260502213054 9 0.0 0.0 0.00 0.00 0.00 51 1013.9
20260502211554 9 0.0 0.0 0.00 0.00 0.00 54 1013.7
20260502210106 9 0.0 0.0 0.00 0.00 0.00 54 1013.7
20260502204556 8 0.0 0.0 0.00 0.00 0.00 55 1014.1
20260502203055 9 0.0 0.0 0.00 0.00 0.00 51 1013.9
20260502201601 10 0.0 0.0 0.00 0.00 0.00 50 1014.0
20260502200105 10 0.0 0.0 0.00 0.00 0.00 49 1013.8
20260502194555 10 0.0 0.0 0.00 0.00 0.00 50 1014.1
20260502193051 10 0.0 0.0 0.00 0.00 0.00 51 1014.0
20260502191558 10 0.0 0.0 0.00 0.00 0.00 49 1013.9
20260502190105 10 0.0 0.0 0.00 0.00 0.00 45 1014.0
20260502184558 10 0.0 0.0 0.00 0.00 0.00 48 1014.2
20260502183052 10 0.0 0.0 0.00 0.00 0.00 48 1014.2
20260502181555 10 0.0 0.0 0.00 0.00 0.00 50 1014.1
20260502180120 10 0.0 0.0 0.00 0.00 0.00 47 1014.1
20260502163053 10 0.0 0.0 0.00 0.00 0.00 46 1014.5
20260502161559 10 0.0 0.0 0.00 0.00 0.00 46 1014.6
20260502151606 9 0.0 0.0 0.00 0.00 0.00 52 1015.0
20260502130104 5 0.0 0.0 0.00 0.00 0.00 71 1015.2
20260502123102 4 0.0 0.0 0.00 0.00 0.00 76 1015.1
20260502121606 4 0.0 0.0 0.00 0.00 0.00 76 1015.1
20260502114554 3 0.0 0.0 0.00 0.00 0.00 78 1015.1
20260502113054 3 0.0 0.0 0.00 0.00 0.00 78 1015.1
20260502111601 3 0.0 0.0 0.00 0.00 0.00 78 1014.9
20260502110054 3 0.0 0.0 0.00 0.00 0.00 77 1014.7
20260502104554 3 0.0 0.0 0.00 0.00 0.00 76 1014.7
20260502103104 3 0.0 0.0 0.00 0.00 0.00 76 1014.7
20260502101614 3 0.0 0.0 0.00 0.00 0.00 75 1014.8
20260502100113 3 0.0 0.0 0.00 0.00 0.00 75 1014.5
20260502080106 6 0.0 0.0 0.00 0.00 0.00 66 1014.8
20260502070052 6 0.0 0.0 0.00 0.00 0.00 66 1014.7
20260502064600 6 0.0 0.0 0.00 0.00 0.00 66 1014.7
20260502063057 6 0.0 0.0 0.00 0.00 0.00 69 1015.0
20260502061552 6 0.0 0.0 0.00 0.00 0.00 74 1015.1
20260502060108 7 0.0 0.0 0.00 0.00 0.00 75 1015.2
20260502054552 7 0.0 0.0 0.00 0.00 0.00 77 1015.3
20260502053100 7 0.0 0.0 0.00 0.00 0.00 77 1014.9
20260502051559 7 0.0 0.0 0.00 0.00 0.00 76 1015.0
20260502050057 7 0.0 0.0 0.00 0.00 0.00 76 1014.8
20260502044556 7 0.0 0.0 0.00 0.00 0.00 75 1015.0
20260502043105 8 0.0 0.0 0.00 0.00 0.00 74 1015.2
20260502041556 8 0.0 0.0 0.00 0.00 0.00 72 1015.2
20260502040054 8 0.0 0.0 0.00 0.00 0.00 73 1015.0
20260502034551 8 0.0 0.0 0.00 0.00 0.00 72 1015.1
20260502033056 8 0.0 0.0 0.00 0.00 0.00 72 1015.3
20260502031552 8 0.0 0.0 0.00 0.00 0.00 72 1015.2
20260502030056 9 0.0 0.0 0.00 0.00 0.00 71 1015.2
20260502024556 9 0.0 0.0 0.00 0.00 0.00 70 1014.9
20260502023058 9 0.0 0.0 0.00 0.00 0.00 71 1014.7